TITAN 3C TRANSTAGE DEB, 26528

Orbit data source: Space-Track

TITAN 3C TRANSTAGE DEB, 26528 is space debris in HEO originally from a launch on Tue, 21 Dec 1965 UTC launched from the Air Force Eastern Test Range (AFETR). Debris objects in space refer to the collection of defunct objects orbiting the Earth. Examples of debris include non-operational satellites, rocket bodies, and fragments generated from explosions, collisions, or faulty payload assembly.

Loading next visibility...
Identifier
26528, 1965-108AP
Orbit
HEO
Country
Flag of USUS
Related business
Manufacturer
Unknown
Mission
Spacecraft
Bus & Motor
Unknown
Mass
Unknown
Launch date (UTC)
1965-12-21 (60 years ago)
Launch vehicle
Unknown
Launch site
Air Force Eastern Test Range (AFETR)
Object type
Payload
Rocket body
Debris
Shape & HBR
Unknown shape, 0.1 m
Radar Cross Section
Medium (>0.1 m² and <1 m²)

Expand to show TLE details & history
Last TLE update: 2 days ago

TLE from 2 days ago
0 TITAN 3C TRANSTAGE DEB
1 26528U 65108AP  26033.28786852 -.00000395  00000-0 -14974-1 0  9998
2 26528  27.5882 337.4904 6664104 214.4972 351.9804  2.68066406264823
Epoch: 2026-02-02T06:54Z
TLE epoch observation values (Epoch: 2026-02-02T06:54:31.840Z)
Latitude
6.12829°
Longitude
-90.40615°
Altitude
2,037.628 km
Speed
8.747 km/s
True Right ascension
09h 42m 50s
True Declination
6° 05' 51"
Sunlit
Object was in full shadow at epoch
Visualization orbit readout
Latitude
Unknown
Longitude
Unknown
Altitude
Unknown
Speed
Unknown
Apparent Right ascension
Unknown
Apparent Declination
Unknown
Sunlit
N/A
Visualization observer readout
Local Sidereal Time
02:16:45
Azimuth
Unknown
Elevation
Unknown
Doppler factor
Unknown
Orbital elements
Apogee altitude
30,104.633 km
Perigee altitude
925.15 km
Semi-major axis
21,893.028 km
Eccentricity
0.66641
Inclination
27.5882°
RAAN
337.4904°
Arg. of periapsis
214.4972°
True anomaly
311.40165°
Mean anomaly
351.9804°
Eccentric anomaly
337.15874°
Mean motion
0.67001 °/min
Orbital period
537.3 mins
BSTAR
-0.014974
Loading maneuver chart data...
Computing Atmospheric mass density...

Documentation

Showing up to 5 results
|